THOR ABLESTAR DEB

Satellite information

Favourite Embed

Satellite Type and Status

DEBRISIN ORBIT

Key statistics

Satellite THOR ABLESTAR DEB at a glance.

Uptime

23544

Days in orbit

Revolutions

≈ 13.9

Per day

Orbit

LEO

Low Earth Orbit

Inclination

65.7

Latest

Satellite identification and parameters

Extended collection of information and parameters for THOR ABLESTAR DEB.

Object identification

Identified? True

Debris? True

Object name: THOR ABLESTAR DEB

International designator: 1961-015KW

Object number (NORAD): 13513

Object ID (CCSDS): 13513

Country: UNITED STATES OF AMERICA (US)

Current information (Y/N): Y

RCS size: SMALL

Orbital parameters

Period: 103.649 minutes

Inclination: 65.6789 deg

SMA: 7309.213 km

Apoapsis: 1006.681 km

Periapsis: 855.476 km

RAAN: 307.3782 deg

Eccentricy: 0.01034346

Argument of periapsis: 297.9434 deg

Mean anomaly: 93.9744 deg

Mean motion: 13.89302531 rev/day

Mean motion (dot): 0.0000233 rev/day2

B* drag term: 0.0018962217 1/REarth

Two-line elements (TLE)

Creation date: Dec. 13, 2025, 4:32 a.m.

Reference frame: TEME

Reference center: EARTH

Epoch: Dec. 12, 2025, 9:59 p.m. UTC

TLE line 0: 0 THOR ABLESTAR DEB

TLE line 1: 1 13513U 61015KW 25346.91662205 .00002330 00000-0 18962-2 0 9993

TLE line 2: 2 13513 65.6789 307.3782 0103435 297.9434 93.9744 13.89302531293285

Live tracking on map

Real-time ground track for satellite THOR ABLESTAR DEB.

In-orbit conjunctions

A list of the most updated potential collisions computed for object THOR ABLESTAR DEB.

Target Orbit TCA Probability of collision Miss distance Type
FENGYUN 1C DEB SSO 2025-04-15 06:57:10 0.0001021575 182.0 (m) DEBRIS
COSMOS 886 DEB LEO 2024-11-10 13:18:47 0.0001839587 197.0 (m) DEBRIS
SL-8 DEB LEO 2024-07-14 09:29:59 0.0002111838 212.0 (m) DEBRIS

Associated space launch

THOR ABLESTAR DEB was lifted into orbit during the mission ‘Thor DM-21 Ablestar | Transit 4A & Injun-1 & Solrad 3’, on board a Thor DM-21 Ablestar space rocket.

The launch took place on June 29, 1961, 4:23 a.m. from Space Launch Complex 17B.

For more information about the launch, click the button.

Launch to space Thor DM-21 Ablestar | Transit 4A & Injun-1 & Solrad 3
Thor DM-21 Ablestar | Transit 4A & Injun-1 & Solrad 3

Agency: N/A

Status: Launch Successful

Launch date: June 29, 1961, 4:23 a.m. UTC

Rocket: Thor DM-21 Ablestar

Launch pad: Space Launch Complex 17B

Location: Cape Canaveral SFS, FL, USA

...

Latest news about this satellite

There are no fresh news available about this satellite. Check back as we update our databases every day.


Newsletter sign-up

Weekly statistics, charts and insights to help you stay on top of the space industry.